K3RTA-2 Weather Reports


Display with metric or nautical units.
time (UTC)temp
F
wind
direction
speed
MPH
gust
MPH
rain 1hr
in
rain 24hr
in
rain mn
in
humidity
%
barometer
mb
20260831050504 74 153 0.0 1.0 0.00 0.00 0.00 96 1018.8
20260831050004 74 118 0.0 2.0 0.00 0.00 0.00 96 1018.8
20260831045503 74 257 0.0 2.0 0.00 0.00 0.00 96 1018.7
20260831045004 74 135 0.0 1.0 0.00 0.00 0.00 96 1018.7
20260831044504 74 135 0.0 1.0 0.00 0.00 0.00 96 1018.8
20260831043504 74 141 0.0 1.0 0.00 0.00 0.00 96 1018.8
20260831043004 74 125 0.0 1.0 0.00 0.00 0.00 96 1018.9
20260831042504 74 124 0.0 3.0 0.00 0.00 0.00 96 1018.8
20260831042004 74 215 1.0 3.0 0.00 0.00 0.00 96 1018.8
20260831041503 74 144 0.0 1.0 0.00 0.00 0.00 96 1018.9
20260831041004 74 167 0.0 0.0 0.00 0.00 0.00 96 1018.9
20260831040004 74 167 0.0 3.0 0.00 0.00 0.00 96 1019.1
20260831035504 74 166 0.0 3.0 0.00 0.00 0.00 96 1019.0
20260831035003 74 148 0.0 2.0 0.00 0.00 0.00 96 1019.1
20260831034004 74 135 0.0 3.0 0.00 0.00 0.00 96 1019.1
20260831033505 74 200 0.0 1.0 0.00 0.00 0.00 96 1019.2
20260831033004 74 238 0.0 1.0 0.00 0.00 0.00 96 1019.2
20260831032503 74 177 0.0 1.0 0.00 0.00 0.00 96 1019.1
20260831032005 74 177 0.0 1.0 0.00 0.00 0.00 96 1019.2
20260831031504 74 163 0.0 1.0 0.00 0.00 0.00 96 1019.2
20260831030505 74 154 0.0 0.0 0.00 0.00 0.00 96 1019.2
20260831030003 74 153 0.0 2.0 0.00 0.00 0.00 96 1019.3
20260831025505 74 135 0.0 2.0 0.00 0.00 0.00 96 1019.3
20260831025005 74 354 0.0 1.0 0.00 0.00 0.00 96 1019.5
20260831024504 74 163 0.0 2.0 0.00 0.00 0.00 96 1019.7
20260831024004 74 133 0.0 2.0 0.00 0.00 0.00 96 1019.6
20260831023004 74 249 0.0 1.0 0.00 0.00 0.00 96 1019.7
20260831022503 74 232 0.0 1.0 0.00 0.00 0.00 95 1019.7
20260831022004 74 232 0.0 1.0 0.00 0.00 0.00 95 1019.6
20260831021504 74 178 0.0 1.0 0.00 0.00 0.00 95 1019.5
20260831021004 74 132 0.0 0.0 0.00 0.00 0.00 95 1019.5
20260831020505 74 132 0.0 0.0 0.00 0.00 0.00 95 1019.5
20260831020004 74 132 0.0 0.0 0.00 0.00 0.00 95 1019.5
20260831015504 74 132 0.0 0.0 0.00 0.00 0.00 95 1019.6
20260831015005 74 132 0.0 0.0 0.00 0.00 0.00 95 1019.7
20260831014004 74 132 0.0 2.0 0.00 0.00 0.00 94 1019.7
20260831013504 75 131 0.0 2.0 0.00 0.00 0.00 94 1019.6
20260831013004 75 147 0.0 1.0 0.00 0.00 0.00 94 1019.7
20260831012505 75 172 0.0 2.0 0.00 0.00 0.00 94 1019.8
20260831012004 75 179 0.0 2.0 0.00 0.00 0.00 94 1019.7
20260831011504 75 205 0.0 2.0 0.00 0.00 0.00 94 1019.8
20260831011004 76 147 1.0 2.0 0.00 0.00 0.00 94 1019.8
20260831010504 76 233 0.0 1.0 0.00 0.00 0.00 93 1019.8
20260831005504 76 29 0.0 1.0 0.00 0.00 0.00 93 1019.6
20260831005005 76 29 0.0 1.0 0.00 0.00 0.00 93 1019.6
20260831004503 76 162 0.0 2.0 0.00 0.00 0.00 93 1019.5
20260831003004 76 151 0.0 3.0 0.00 0.00 0.00 93 1019.4
20260831002504 76 161 0.0 3.0 0.00 0.00 0.00 92 1019.4
20260831002004 77 174 0.0 2.0 0.00 0.00 0.00 92 1019.3
20260831001503 77 240 0.0 3.0 0.00 0.00 0.00 92 1019.3
20260831001004 77 143 1.0 3.0 0.00 0.00 0.00 92 1019.4
20260831000005 77 223 0.0 2.0 0.00 0.00 0.00 91 1019.3
20260830235504 78 155 0.0 3.0 0.00 0.00 0.00 91 1019.2
20260830235005 78 169 1.0 3.0 0.00 0.00 0.00 91 1019.3
20260830234504 78 158 0.0 3.0 0.00 0.00 0.00 90 1019.2
20260830233503 79 149 0.0 6.0 0.00 0.00 0.00 90 1019.1
20260830233004 79 153 1.0 6.0 0.00 0.00 0.00 89 1019.2
20260830232504 79 267 0.0 3.0 0.00 0.00 0.00 89 1019.3
20260830232004 79 158 0.0 5.0 0.00 0.00 0.00 88 1019.3
20260830231504 80 172 1.0 5.0 0.00 0.00 0.00 86 1019.3
20260830231004 80 145 0.0 2.0 0.00 0.00 0.00 83 1019.3
20260830230004 81 124 0.0 0.0 0.00 0.00 0.00 80 1019.3
20260830225503 81 124 0.0 0.0 0.00 0.00 0.00 79 1019.2
20260830225005 81 124 0.0 1.0 0.00 0.00 0.00 78 1019.2
20260830224504 81 124 0.0 1.0 0.00 0.00 0.00 78 1019.2
20260830224004 81 125 0.0 1.0 0.00 0.00 0.00 78 1019.2
20260830223505 82 132 0.0 0.0 0.00 0.00 0.00 77 1019.2
20260830223004 82 133 0.0 0.0 0.00 0.00 0.00 76 1019.1
20260830222504 82 142 0.0 0.0 0.00 0.00 0.00 75 1019.0
20260830222003 83 150 0.0 2.0 0.00 0.00 0.00 74 1019.0
20260830221004 83 157 0.0 2.0 0.00 0.00 0.00 72 1018.9
20260830220504 84 118 0.0 2.0 0.00 0.00 0.00 71 1018.8
20260830215004 85 216 1.0 3.0 0.00 0.00 0.00 69 1018.7
20260830214503 85 155 1.0 5.0 0.00 0.00 0.00 67 1018.6
20260830213504 86 143 1.0 5.0 0.00 0.00 0.00 66 1018.8
20260830213004 87 237 1.0 2.0 0.00 0.00 0.00 65 1018.8
20260830212504 87 180 1.0 3.0 0.00 0.00 0.00 66 1018.8
20260830212003 87 195 1.0 3.0 0.00 0.00 0.00 66 1018.8
20260830211505 87 154 2.0 3.0 0.00 0.00 0.00 66 1018.8
20260830211004 87 236 1.0 6.0 0.00 0.00 0.00 66 1018.8
20260830210503 87 160 1.0 6.0 0.00 0.00 0.00 66 1018.8
20260830210004 87 185 1.0 5.0 0.00 0.00 0.00 66 1018.8
20260830205004 87 213 1.0 3.0 0.00 0.00 0.00 65 1018.7
20260830204504 87 134 1.0 3.0 0.00 0.00 0.00 64 1018.7
20260830204004 87 174 1.0 5.0 0.00 0.00 0.00 64 1018.8
20260830203503 87 138 1.0 6.0 0.00 0.00 0.00 65 1018.9
20260830203004 87 126 1.0 6.0 0.00 0.00 0.00 66 1018.9
20260830201504 87 243 2.0 6.0 0.00 0.00 0.00 64 1019.0
20260830201003 88 237 2.0 3.0 0.00 0.00 0.00 66 1019.1
20260830200004 87 322 1.0 5.0 0.00 0.00 0.00 67 1019.1
20260830195004 87 156 2.0 5.0 0.00 0.00 0.00 67 1019.2
20260830194504 87 84 2.0 6.0 0.00 0.00 0.00 67 1019.2
20260830194004 87 62 3.0 6.0 0.00 0.00 0.00 68 1019.3
20260830193504 87 35 2.0 6.0 0.00 0.00 0.00 67 1019.3
20260830193004 87 210 1.0 7.0 0.00 0.00 0.00 67 1019.4
20260830192504 87 168 2.0 7.0 0.00 0.00 0.00 68 1019.5
20260830191503 87 217 1.0 3.0 0.00 0.00 0.00 68 1019.7
20260830191004 87 191 1.0 5.0 0.00 0.00 0.00 69 1019.7
20260830190504 87 120 2.0 5.0 0.00 0.00 0.00 68 1019.9
20260830190005 87 157 1.0 6.0 0.00 0.00 0.00 69 1019.9
20260830185504 87 139 2.0 6.0 0.00 0.00 0.00 67 1020.0
20260830185004 87 133 0.0 5.0 0.00 0.00 0.00 70 1020.1
20260830184504 87 312 2.0 6.0 0.00 0.00 0.00 70 1020.2
20260830184004 87 353 0.0 6.0 0.00 0.00 0.00 70 1020.3
20260830183504 87 77 1.0 3.0 0.00 0.00 0.00 69 1020.4
20260830183004 87 61 0.0 3.0 0.00 0.00 0.00 70 1020.5
20260830182505 87 133 1.0 3.0 0.00 0.00 0.00 68 1020.6
20260830182004 87 244 1.0 3.0 0.00 0.00 0.00 67 1020.6
20260830181504 87 94 1.0 3.0 0.00 0.00 0.00 69 1020.6
20260830181005 87 308 2.0 3.0 0.00 0.00 0.00 67 1020.7
20260830180504 87 335 1.0 5.0 0.00 0.00 0.00 68 1020.6
20260830180004 87 132 1.0 5.0 0.00 0.00 0.00 67 1020.7
20260830175504 87 85 0.0 5.0 0.00 0.00 0.00 69 1020.8
20260830174504 86 249 1.0 3.0 0.00 0.00 0.00 69 1021.1
20260830174004 86 133 1.0 8.0 0.00 0.00 0.00 69 1021.1
20260830173504 86 163 2.0 8.0 0.00 0.00 0.00 67 1021.1
20260830173004 86 136 1.0 8.0 0.00 0.00 0.00 67 1021.1
20260830172505 86 252 1.0 7.0 0.00 0.00 0.00 69 1021.3
20260830171504 86 229 2.0 7.0 0.00 0.00 0.00 70 1021.3
20260830171004 86 165 1.0 5.0 0.00 0.00 0.00 72 1021.5
20260830170504 85 34 1.0 3.0 0.00 0.00 0.00 71 1021.5
20260830170004 85 142 1.0 5.0 0.00 0.00 0.00 70 1021.6
20260830165503 85 13 2.0 5.0 0.00 0.00 0.00 70 1021.6
20260830165005 85 236 0.0 5.0 0.00 0.00 0.00 70 1021.6
20260830164504 85 266 1.0 5.0 0.00 0.00 0.00 69 1021.6
20260830164004 85 141 0.0 7.0 0.00 0.00 0.00 72 1021.5
20260830163504 85 170 2.0 7.0 0.00 0.00 0.00 70 1021.6
20260830163004 85 98 1.0 6.0 0.00 0.00 0.00 70 1021.7
20260830162503 85 322 2.0 6.0 0.00 0.00 0.00 70 1021.8
20260830162004 85 50 1.0 3.0 0.00 0.00 0.00 72 1021.9
20260830161504 85 195 0.0 3.0 0.00 0.00 0.00 73 1021.9
20260830161004 84 17 1.0 5.0 0.00 0.00 0.00 72 1021.9
20260830160503 84 208 1.0 5.0 0.00 0.00 0.00 72 1022.1
20260830160004 84 81 1.0 3.0 0.00 0.00 0.00 74 1022.0
20260830155504 84 250 1.0 3.0 0.00 0.00 0.00 73 1022.1
20260830155004 83 244 1.0 3.0 0.00 0.00 0.00 73 1022.1
20260830154504 83 262 2.0 3.0 0.00 0.00 0.00 73 1022.2
20260830154004 83 25 0.0 3.0 0.00 0.00 0.00 73 1022.2
20260830153004 83 238 1.0 7.0 0.00 0.00 0.00 73 1022.1
20260830152504 82 215 1.0 7.0 0.00 0.00 0.00 74 1022.2
20260830152005 82 159 2.0 7.0 0.00 0.00 0.00 75 1022.3
20260830151504 82 213 1.0 5.0 0.00 0.00 0.00 77 1022.3
20260830151004 82 1 1.0 8.0 0.00 0.00 0.00 74 1022.2
20260830150504 82 220 0.0 8.0 0.00 0.00 0.00 77 1022.2
20260830150004 82 141 2.0 8.0 0.00 0.00 0.00 75 1022.2
20260830145505 82 241 2.0 5.0 0.00 0.00 0.00 77 1022.2
20260830145004 82 167 0.0 3.0 0.00 0.00 0.00 80 1022.1
20260830144504 81 171 1.0 3.0 0.00 0.00 0.00 78 1022.2
20260830144004 81 244 1.0 5.0 0.00 0.00 0.00 81 1022.2
20260830143503 80 130 2.0 5.0 0.00 0.00 0.00 79 1022.2
20260830143005 81 152 1.0 3.0 0.00 0.00 0.00 80 1022.4
20260830142504 81 2 0.0 3.0 0.00 0.00 0.00 79 1022.4
20260830142004 81 151 0.0 3.0 0.00 0.00 0.00 81 1022.4
20260830141504 80 160 0.0 3.0 0.00 0.00 0.00 82 1022.5
20260830141004 80 113 0.0 3.0 0.00 0.00 0.00 81 1022.5
20260830135504 79 231 1.0 3.0 0.00 0.00 0.00 83 1022.6
20260830135004 79 63 0.0 1.0 0.00 0.00 0.00 85 1022.8
20260830134504 79 105 0.0 3.0 0.00 0.00 0.00 84 1022.7
20260830134004 78 130 0.0 3.0 0.00 0.00 0.00 86 1022.8
20260830133504 78 103 1.0 3.0 0.00 0.00 0.00 84 1022.9
20260830133004 79 89 0.0 2.0 0.00 0.00 0.00 87 1023.0
20260830132504 78 136 0.0 2.0 0.00 0.00 0.00 89 1023.0
20260830132004 77 117 1.0 3.0 0.00 0.00 0.00 89 1023.0
20260830131005 76 150 0.0 3.0 0.00 0.00 0.00 91 1023.1
20260830130504 76 316 0.0 3.0 0.00 0.00 0.00 92 1023.1
20260830130004 75 135 1.0 5.0 0.00 0.00 0.00 93 1023.2
20260830125003 74 265 1.0 3.0 0.00 0.00 0.00 94 1023.2
20260830124504 74 144 1.0 2.0 0.00 0.00 0.00 94 1023.2
20260830124004 73 106 0.0 1.0 0.00 0.00 0.00 95 1023.2
20260830123504 73 121 0.0 1.0 0.00 0.00 0.00 96 1023.2
20260830123004 72 120 0.0 1.0 0.00 0.00 0.00 97 1023.2
20260830122004 71 121 0.0 1.0 0.00 0.00 0.00 98 1023.3
20260830121504 70 141 0.0 1.0 0.00 0.00 0.00 98 1023.3
20260830120504 68 117 0.0 0.0 0.00 0.00 0.00 98 1023.3
20260830120004 68 117 0.0 0.0 0.00 0.00 0.00 98 1023.3
20260830115505 67 117 0.0 0.0 0.00 0.00 0.00 98 1023.3
20260830115003 66 117 0.0 0.0 0.00 0.00 0.00 98 1023.3
20260830114504 64 117 0.0 0.0 0.00 0.00 0.00 98 1023.2
20260830114004 63 117 0.0 0.0 0.00 0.00 0.00 98 1023.3
20260830113504 63 117 0.0 0.0 0.00 0.00 0.00 98 1023.3
20260830112504 62 117 0.0 0.0 0.00 0.00 0.00 98 1023.3
20260830112003 62 117 0.0 0.0 0.00 0.00 0.00 98 1023.4
20260830111503 62 117 0.0 0.0 0.00 0.00 0.00 98 1023.3
20260830111003 62 117 0.0 0.0 0.00 0.00 0.00 98 1023.4
20260830110504 61 117 0.0 0.0 0.00 0.00 0.00 98 1023.3
20260830110005 61 117 0.0 0.0 0.00 0.00 0.00 98 1023.3
20260830105004 61 117 0.0 0.0 0.00 0.00 0.00 98 1023.3
20260830104504 61 117 0.0 0.0 0.00 0.00 0.00 98 1023.4
20260830104004 61 117 0.0 0.0 0.00 0.00 0.00 98 1023.3
20260830103504 61 117 0.0 0.0 0.00 0.00 0.00 98 1023.2
20260830102504 61 117 0.0 0.0 0.00 0.00 0.00 98 1023.1
20260830102004 61 117 0.0 0.0 0.00 0.00 0.00 98 1023.1
20260830101505 61 117 0.0 0.0 0.00 0.00 0.00 98 1023.1
20260830101004 61 117 0.0 0.0 0.00 0.00 0.00 98 1023.2
20260830100504 61 117 0.0 0.0 0.00 0.00 0.00 98 1023.1
20260830100004 61 117 0.0 0.0 0.00 0.00 0.00 98 1023.1
20260830095504 61 117 0.0 0.0 0.00 0.00 0.00 98 1023.1
20260830095004 61 117 0.0 0.0 0.00 0.00 0.00 98 1023.1
20260830094503 61 117 0.0 0.0 0.00 0.00 0.00 98 1023.1
20260830093504 61 117 0.0 0.0 0.00 0.00 0.00 98 1023.1
20260830093004 61 117 0.0 0.0 0.00 0.00 0.00 98 1023.1
20260830092504 61 117 0.0 0.0 0.00 0.00 0.00 98 1023.1
20260830091504 61 117 0.0 0.0 0.00 0.00 0.00 98 1023.1
20260830090504 61 117 0.0 0.0 0.00 0.00 0.00 98 1023.0
20260830090005 61 116 0.0 0.0 0.00 0.00 0.00 98 1023.1
20260830085504 61 116 0.0 0.0 0.00 0.00 0.00 98 1023.0
20260830085004 61 116 0.0 0.0 0.00 0.00 0.00 98 1023.0
20260830084504 61 116 0.0 0.0 0.00 0.00 0.00 98 1023.1
20260830084004 61 116 0.0 0.0 0.00 0.00 0.00 98 1023.2
20260830083504 61 116 0.0 0.0 0.00 0.00 0.00 98 1023.2
20260830083004 61 116 0.0 0.0 0.00 0.00 0.00 98 1023.2
20260830082504 62 116 0.0 0.0 0.00 0.00 0.00 98 1023.2
20260830082004 61 116 0.0 0.0 0.00 0.00 0.00 98 1023.1
20260830081004 62 117 0.0 0.0 0.00 0.00 0.00 98 1023.0
20260830080504 62 117 0.0 0.0 0.00 0.01 0.00 98 1023.0
20260830080004 62 117 0.0 0.0 0.00 0.01 0.00 97 1022.8
20260830075504 62 117 0.0 0.0 0.00 0.01 0.00 97 1022.8
20260830075004 62 117 0.0 0.0 0.00 0.01 0.00 97 1022.8
20260830074504 62 117 0.0 0.0 0.00 0.01 0.00 97 1022.8
20260830074004 62 117 0.0 0.0 0.00 0.01 0.00 97 1022.9
20260830073505 62 117 0.0 0.0 0.00 0.01 0.00 98 1022.9
20260830073004 62 117 0.0 0.0 0.00 0.01 0.00 98 1023.0
20260830072004 62 117 0.0 0.0 0.00 0.01 0.00 98 1023.2
20260830071503 62 117 0.0 0.0 0.00 0.01 0.00 98 1023.2
20260830071004 62 117 0.0 0.0 0.00 0.01 0.00 98 1023.2
20260830070504 62 117 0.0 0.0 0.00 0.01 0.00 97 1023.3
20260830070004 62 117 0.0 0.0 0.00 0.01 0.00 97 1023.3
20260830065504 62 117 0.0 0.0 0.00 0.01 0.00 97 1023.3
20260830065004 62 117 0.0 0.0 0.00 0.01 0.00 97 1023.4
20260830064504 62 117 0.0 0.0 0.00 0.01 0.00 97 1023.4
20260830063004 62 117 0.0 0.0 0.00 0.01 0.00 97 1023.4
20260830062504 62 117 0.0 0.0 0.00 0.01 0.00 97 1023.6
20260830062005 62 117 0.0 0.0 0.00 0.01 0.00 97 1023.5
20260830061504 62 117 0.0 0.0 0.00 0.01 0.00 97 1023.6
20260830060505 62 117 0.0 0.0 0.00 0.01 0.00 97 1023.6
20260830060004 62 117 0.0 0.0 0.00 0.01 0.00 97 1023.6
20260830055504 62 117 0.0 0.0 0.00 0.01 0.00 97 1023.6
20260830055004 62 117 0.0 0.0 0.00 0.01 0.00 97 1023.6
20260830054504 63 117 0.0 0.0 0.00 0.01 0.00 97 1023.7
20260830053504 63 117 0.0 0.0 0.00 0.01 0.00 97 1023.8
20260830052505 63 117 0.0 0.0 0.00 0.01 0.00 97 1023.8
20260830052004 63 117 0.0 0.0 0.00 0.01 0.00 97 1023.8
20260830051504 63 117 0.0 0.0 0.00 0.01 0.00 97 1023.9